QPF
0.01 0.05 0.12 0.11 0.11 0.10 0.09 0.05 0.04 0.02 0.01 0.01 0.01 0.02 0.03 0.04 0.06 0.09 0.13 0.15 0.16 0.12 0.04 0.05 0.10 0.16 0.22 0.21 0.21 0.28 0.24 0.15 0.14 0.13 0.14 0.11 0.08 0.08 0.10 0.11 0.12 0.14 0.12 0.09 0.08 0.08 0.08 0.08 0.09
0.03 0.09 0.16 0.16 0.14 0.10 0.09 0.08 0.04 0.02 0.01 0.01 0.01 0.01 0.02 0.04 0.04 0.09 0.12 0.10 0.13 0.13 0.05 0.06 0.12 0.16 0.16 0.07 0.08 0.17 0.26 0.16 0.12 0.13 0.19 0.19 0.19 0.19 0.18 0.12 0.09 0.09 0.08 0.08 0.06 0.07 0.07 0.09 0.09
0.05 0.09 0.14 0.14 0.12 0.09 0.07 0.04 0.03 0.02 0.02 0.01 0.01 0.01 0.02 0.04 0.04 0.07 0.10 0.09 0.05 0.08 0.05 0.08 0.13 0.15 0.13 0.06 0.05 0.13 0.26 0.18 0.10 0.08 0.12 0.12 0.13 0.14 0.12 0.08 0.06 0.05 0.05 0.05 0.05 0.05 0.06 0.08 0.09
0.07 0.16 0.18 0.13 0.09 0.06 0.04 0.03 0.02 0.02 0.01 0.01 0.00 0.01 0.03 0.04 0.04 0.05 0.07 0.09 0.04 0.04 0.05 0.09 0.12 0.15 0.16 0.13 0.12 0.22 0.26 0.15 0.06 0.03 0.03 0.04 0.05 0.06 0.05 0.05 0.04 0.04 0.04 0.03 0.04 0.06 0.08 0.09 0.11
0.11 0.17 0.21 0.13 0.06 0.04 0.05 0.03 0.03 0.02 0.01 0.01 0.00 0.01 0.04 0.05 0.04 0.04 0.05 0.04 0.04 0.03 0.05 0.07 0.08 0.10 0.14 0.17 0.22 0.23 0.16 0.09 0.04 0.03 0.02 0.02 0.03 0.04 0.04 0.04 0.03 0.03 0.03 0.03 0.04 0.05 0.08 0.09 0.09
0.11 0.16 0.17 0.10 0.06 0.04 0.03 0.03 0.03 0.02 0.01 0.01 0.00 0.00 0.04 0.06 0.04 0.04 0.05 0.03 0.04 0.05 0.05 0.06 0.05 0.06 0.07 0.10 0.11 0.10 0.08 0.05 0.04 0.02 0.01 0.02 0.03 0.03 0.04 0.03 0.03 0.03 0.02 0.03 0.03 0.04 0.05 0.07 0.08
0.19 0.27 0.18 0.06 0.04 0.06 0.04 0.03 0.03 0.01 0.01 0.01 0.01 0.01 0.05 0.07 0.05 0.04 0.05 0.04 0.06 0.05 0.04 0.04 0.03 0.03 0.05 0.06 0.06 0.05 0.04 0.04 0.03 0.02 0.02 0.04 0.03 0.03 0.03 0.04 0.04 0.03 0.02 0.03 0.03 0.03 0.04 0.05 0.06
0.19 0.21 0.13 0.05 0.04 0.05 0.04 0.03 0.02 0.02 0.01 0.01 0.01 0.01 0.03 0.06 0.05 0.04 0.05 0.03 0.06 0.05 0.05 0.03 0.02 0.02 0.03 0.04 0.04 0.04 0.03 0.02 0.02 0.03 0.04 0.05 0.06 0.04 0.04 0.04 0.03 0.02 0.02 0.03 0.03 0.03 0.04 0.04 0.05
0.17 0.23 0.19 0.09 0.04 0.03 0.02 0.02 0.02 0.02 0.01 0.01 0.01 0.02 0.03 0.03 0.03 0.03 0.06 0.06 0.06 0.06 0.06 0.04 0.03 0.03 0.02 0.03 0.03 0.02 0.02 0.02 0.02 0.04 0.08 0.11 0.14 0.09 0.04 0.03 0.02 0.02 0.03 0.05 0.04 0.04 0.05 0.05 0.06
0.12 0.18 0.09 0.05 0.03 0.01 0.01 0.01 0.01 0.01 0.02 0.01 0.02 0.02 0.02 0.02 0.02 0.02 0.03 0.05 0.04 0.05 0.06 0.05 0.03 0.02 0.02 0.02 0.01 0.01 0.01 0.01 0.01 0.02 0.04 0.10 0.19 0.19 0.09 0.05 0.04 0.04 0.05 0.06 0.07 0.07 0.07 0.05 0.05
0.05 0.05 0.02 0.02 0.01 0.01 0.01 0.01 0.01 0.00 0.01 0.02 0.01 0.02 0.02 0.02 0.01 0.01 0.03 0.03 0.04 0.05 0.04 0.05 0.03 0.01 0.01 0.01 0.01 0.02 0.02 0.02 0.01 0.01 0.02 0.05 0.12 0.19 0.14 0.06 0.06 0.05 0.08 0.10 0.15 0.20 0.12 0.08 0.09
0.02 0.02 0.02 0.02 0.02 0.01 0.01 0.01 0.01 0.00 0.01 0.02 0.02 0.02 0.01 0.01 0.00 0.00 0.01 0.01 0.02 0.02 0.02 0.03 0.03 0.02 0.01 0.01 0.01 0.02 0.02 0.02 0.02 0.02 0.03 0.04 0.06 0.07 0.07 0.08 0.06 0.07 0.09 0.14 0.20 0.17 0.12 0.09 0.09
0.00 0.01 0.02 0.02 0.02 0.01 0.01 0.01 0.01 0.01 0.01 0.01 0.01 0.01 0.01 0.01 0.01 0.01 0.01 0.01 0.01 0.02 0.03 0.04 0.03 0.02 0.02 0.01 0.02 0.03 0.03 0.04 0.04 0.03 0.03 0.03 0.03 0.04 0.07 0.07 0.07 0.09 0.09 0.10 0.10 0.08 0.09 0.09 0.09
0.01 0.01 0.01 0.01 0.01 0.01 0.01 0.01 0.01 0.01 0.00 0.00 0.01 0.01 0.01 0.01 0.01 0.01 0.01 0.00 0.01 0.03 0.03 0.04 0.03 0.01 0.01 0.01 0.02 0.03 0.03 0.03 0.04 0.05 0.03 0.04 0.03 0.03 0.03 0.03 0.05 0.07 0.08 0.10 0.10 0.11 0.10 0.09 0.06
0.01 0.01 0.01 0.01 0.01 0.01 0.01 0.01 0.01 0.01 0.01 0.01 0.01 0.01 0.02 0.02 0.02 0.01 0.00 0.01 0.02 0.03 0.03 0.04 0.01 0.01 0.01 0.01 0.01 0.02 0.03 0.03 0.03 0.04 0.02 0.03 0.04 0.03 0.02 0.02 0.03 0.04 0.05 0.08 0.10 0.11 0.08 0.05 0.04
0.01 0.01 0.01 0.00 0.00 0.01 0.01 0.01 0.01 0.01 0.01 0.01 0.01 0.01 0.02 0.02 0.02 0.02 0.01 0.02 0.03 0.04 0.04 0.03 0.01 0.01 0.01 0.01 0.02 0.02 0.02 0.03 0.02 0.02 0.02 0.03 0.05 0.05 0.03 0.02 0.01 0.02 0.03 0.05 0.05 0.04 0.04 0.04 0.03
0.01 0.01 0.01 0.00 0.00 0.01 0.01 0.01 0.01 0.01 0.01 0.01 0.01 0.01 0.02 0.02 0.03 0.03 0.03 0.03 0.04 0.03 0.02 0.01 0.01 0.01 0.01 0.01 0.01 0.01 0.01 0.01 0.01 0.02 0.03 0.04 0.07 0.07 0.04 0.03 0.02 0.01 0.02 0.03 0.02 0.02 0.02 0.03 0.02
0.01 0.01 0.01 0.01 0.00 0.01 0.01 0.01 0.01 0.01 0.01 0.01 0.01 0.02 0.03 0.04 0.04 0.04 0.04 0.04 0.02 0.01 0.01 0.00 0.01 0.01 0.01 0.01 0.01 0.01 0.01 0.01 0.02 0.02 0.03 0.04 0.06 0.08 0.06 0.04 0.04 0.03 0.03 0.03 0.03 0.03 0.02 0.02 0.02
0.01 0.01 0.01 0.01 0.01 0.01 0.01 0.01 0.01 0.01 0.01 0.01 0.02 0.03 0.04 0.05 0.06 0.06 0.05 0.04 0.02 0.01 0.01 0.00 0.01 0.01 0.00 0.00 0.00 0.01 0.02 0.02 0.04 0.05 0.05 0.08 0.04 0.04 0.05 0.04 0.04 0.03 0.02 0.03 0.03 0.03 0.02 0.02 0.02
0.01 0.02 0.01 0.01 0.01 0.01 0.01 0.01 0.01 0.00 0.00 0.01 0.03 0.04 0.05 0.06 0.06 0.05 0.05 0.04 0.02 0.01 0.01 0.01 0.01 0.00 0.00 0.01 0.01 0.01 0.02 0.03 0.05 0.05 0.04 0.03 0.02 0.03 0.04 0.04 0.03 0.02 0.02 0.02 0.02 0.02 0.02 0.02 0.02
0.02 0.03 0.03 0.01 0.01 0.01 0.01 0.02 0.02 0.01 0.01 0.01 0.02 0.03 0.04 0.05 0.05 0.05 0.04 0.03 0.02 0.02 0.01 0.00 0.00 0.01 0.01 0.01 0.01 0.02 0.02 0.02 0.02 0.03 0.03 0.04 0.04 0.04 0.04 0.04 0.04 0.03 0.03 0.02 0.02 0.02 0.02 0.03 0.03
0.01 0.02 0.02 0.02 0.01 0.02 0.01 0.02 0.03 0.01 0.01 0.02 0.03 0.02 0.03 0.03 0.05 0.07 0.05 0.03 0.03 0.02 0.01 0.01 0.01 0.01 0.02 0.02 0.03 0.05 0.04 0.02 0.02 0.02 0.02 0.03 0.04 0.03 0.03 0.04 0.05 0.04 0.03 0.02 0.03 0.03 0.03 0.04 0.04
0.01 0.01 0.01 0.02 0.04 0.03 0.02 0.02 0.02 0.01 0.03 0.05 0.04 0.03 0.03 0.03 0.03 0.04 0.04 0.05 0.05 0.04 0.02 0.02 0.01 0.01 0.02 0.03 0.03 0.04 0.03 0.02 0.02 0.02 0.02 0.02 0.02 0.02 0.03 0.04 0.04 0.04 0.03 0.03 0.03 0.03 0.03 0.03 0.04
0.01 0.01 0.01 0.02 0.04 0.05 0.04 0.03 0.03 0.02 0.03 0.06 0.06 0.04 0.03 0.03 0.03 0.03 0.05 0.06 0.04 0.02 0.02 0.02 0.01 0.01 0.02 0.02 0.03 0.04 0.04 0.03 0.02 0.02 0.02 0.02 0.02 0.03 0.04 0.03 0.02 0.01 0.01 0.02 0.02 0.04 0.04 0.04 0.05
0.01 0.01 0.03 0.03 0.04 0.05 0.05 0.06 0.05 0.06 0.04 0.04 0.04 0.04 0.03 0.02 0.02 0.02 0.02 0.02 0.01 0.01 0.01 0.01 0.01 0.01 0.02 0.03 0.04 0.04 0.04 0.03 0.02 0.02 0.03 0.02 0.02 0.02 0.03 0.02 0.02 0.01 0.01 0.02 0.03 0.04 0.04 0.06 0.07
0.01 0.02 0.03 0.03 0.04 0.04 0.05 0.07 0.06 0.06 0.06 0.03 0.04 0.04 0.03 0.02 0.01 0.01 0.01 0.01 0.01 0.01 0.00 0.01 0.01 0.02 0.03 0.04 0.05 0.05 0.04 0.04 0.03 0.02 0.03 0.02 0.01 0.02 0.02 0.02 0.02 0.01 0.01 0.02 0.03 0.03 0.03 0.04 0.04
0.01 0.01 0.02 0.03 0.04 0.05 0.05 0.05 0.06 0.07 0.05 0.03 0.03 0.03 0.02 0.01 0.01 0.00 0.00 0.01 0.00 0.00 0.01 0.01 0.01 0.02 0.02 0.03 0.04 0.05 0.04 0.04 0.03 0.02 0.02 0.02 0.01 0.02 0.02 0.02 0.02 0.02 0.02 0.02 0.02 0.01 0.02 0.03 0.03
0.01 0.01 0.02 0.03 0.05 0.05 0.05 0.06 0.07 0.06 0.04 0.03 0.05 0.04 0.02 0.02 0.01 0.00 0.00 0.00 0.00 0.00 0.01 0.01 0.01 0.01 0.01 0.02 0.02 0.03 0.03 0.03 0.03 0.02 0.03 0.03 0.03 0.03 0.03 0.02 0.02 0.02 0.02 0.03 0.02 0.01 0.01 0.02 0.02
0.01 0.01 0.02 0.02 0.02 0.03 0.05 0.08 0.06 0.04 0.06 0.05 0.04 0.03 0.02 0.02 0.01 0.01 0.00 0.00 0.00 0.00 0.00 0.00 0.00 0.01 0.01 0.01 0.01 0.02 0.02 0.02 0.03 0.03 0.04 0.04 0.03 0.02 0.02 0.02 0.02 0.02 0.04 0.03 0.01 0.01 0.01 0.02 0.02
0.01 0.01 0.02 0.02 0.02 0.03 0.05 0.06 0.05 0.07 0.11 0.10 0.06 0.03 0.02 0.02 0.01 0.01 0.01 0.01 0.00 0.01 0.01 0.00 0.00 0.00 0.01 0.01 0.01 0.01 0.02 0.02 0.02 0.04 0.04 0.03 0.03 0.03 0.02 0.01 0.01 0.02 0.04 0.03 0.02 0.01 0.01 0.01 0.01
MSLP
1009.33 1010.04 1010.73 1011.26 1011.53 1011.47 1011.11 1010.50 1009.79 1009.12 1008.64 1008.44 1008.56 1008.96 1009.53 1010.17 1010.73 1011.09 1011.22 1011.12 1010.84 1010.49 1010.16 1009.94 1009.87 1009.96 1010.16 1010.43 1010.69 1010.93 1011.12 1011.29 1011.47 1011.71 1012.04 1012.47 1012.96 1013.47 1013.94 1014.33 1014.60 1014.75 1014.82 1014.82 1014.82 1014.84 1014.90 1014.99 1015.09
1009.57 1010.35 1011.02 1011.44 1011.54 1011.28 1010.72 1009.97 1009.17 1008.50 1008.09 1008.00 1008.24 1008.75 1009.41 1010.09 1010.64 1010.98 1011.08 1010.95 1010.68 1010.37 1010.11 1009.98 1010.00 1010.18 1010.45 1010.76 1011.06 1011.31 1011.51 1011.67 1011.85 1012.09 1012.40 1012.80 1013.26 1013.72 1014.15 1014.49 1014.73 1014.86 1014.90 1014.90 1014.89 1014.89 1014.93 1015.00 1015.07
1009.96 1010.76 1011.37 1011.65 1011.56 1011.10 1010.37 1009.50 1008.66 1008.01 1007.68 1007.71 1008.07 1008.68 1009.39 1010.07 1010.59 1010.88 1010.93 1010.78 1010.52 1010.25 1010.07 1010.03 1010.16 1010.42 1010.76 1011.13 1011.46 1011.72 1011.92 1012.08 1012.24 1012.45 1012.74 1013.09 1013.49 1013.89 1014.27 1014.56 1014.77 1014.88 1014.93 1014.93 1014.93 1014.95 1014.98 1015.03 1015.07
1010.48 1011.26 1011.76 1011.88 1011.60 1010.97 1010.10 1009.15 1008.31 1007.73 1007.50 1007.65 1008.11 1008.77 1009.50 1010.15 1010.62 1010.84 1010.83 1010.65 1010.40 1010.18 1010.08 1010.13 1010.35 1010.70 1011.10 1011.51 1011.86 1012.13 1012.32 1012.47 1012.61 1012.79 1013.03 1013.33 1013.66 1014.01 1014.32 1014.58 1014.76 1014.88 1014.94 1014.97 1014.99 1015.02 1015.05 1015.09 1015.11
1011.06 1011.77 1012.14 1012.09 1011.65 1010.88 1009.93 1008.97 1008.17 1007.69 1007.58 1007.83 1008.36 1009.06 1009.77 1010.36 1010.74 1010.88 1010.82 1010.62 1010.38 1010.22 1010.18 1010.32 1010.61 1011.01 1011.46 1011.88 1012.23 1012.49 1012.68 1012.81 1012.94 1013.09 1013.30 1013.55 1013.83 1014.12 1014.38 1014.60 1014.77 1014.88 1014.96 1015.02 1015.07 1015.11 1015.15 1015.17 1015.17
1011.60 1012.19 1012.41 1012.21 1011.64 1010.79 1009.83 1008.92 1008.22 1007.87 1007.88 1008.23 1008.81 1009.51 1010.16 1010.68 1010.97 1011.03 1010.92 1010.71 1010.50 1010.39 1010.42 1010.61 1010.95 1011.38 1011.83 1012.24 1012.57 1012.82 1012.99 1013.12 1013.24 1013.38 1013.57 1013.79 1014.03 1014.27 1014.49 1014.68 1014.82 1014.93 1015.02 1015.09 1015.15 1015.20 1015.23 1015.23 1015.20
1011.97 1012.42 1012.48 1012.15 1011.50 1010.64 1009.74 1008.95 1008.40 1008.20 1008.34 1008.78 1009.39 1010.06 1010.65 1011.07 1011.28 1011.28 1011.14 1010.93 1010.76 1010.70 1010.79 1011.02 1011.38 1011.79 1012.21 1012.58 1012.88 1013.09 1013.26 1013.39 1013.52 1013.68 1013.87 1014.08 1014.30 1014.51 1014.69 1014.83 1014.94 1015.03 1015.10 1015.16 1015.21 1015.24 1015.25 1015.22 1015.17
1012.07 1012.36 1012.28 1011.87 1011.19 1010.39 1009.60 1008.98 1008.62 1008.59 1008.86 1009.37 1009.99 1010.62 1011.14 1011.48 1011.62 1011.58 1011.43 1011.26 1011.14 1011.13 1011.26 1011.51 1011.86 1012.24 1012.60 1012.91 1013.15 1013.34 1013.50 1013.64 1013.81 1014.00 1014.22 1014.44 1014.65 1014.84 1014.97 1015.06 1015.12 1015.15 1015.18 1015.19 1015.21 1015.20 1015.18 1015.12 1015.03
1011.88 1012.01 1011.82 1011.36 1010.71 1010.01 1009.38 1008.96 1008.80 1008.94 1009.33 1009.89 1010.52 1011.10 1011.55 1011.83 1011.92 1011.86 1011.74 1011.62 1011.56 1011.61 1011.78 1012.04 1012.35 1012.68 1012.97 1013.21 1013.41 1013.57 1013.72 1013.90 1014.10 1014.34 1014.60 1014.84 1015.05 1015.21 1015.30 1015.33 1015.31 1015.27 1015.22 1015.17 1015.13 1015.08 1015.01 1014.92 1014.80
1011.43 1011.44 1011.17 1010.69 1010.11 1009.54 1009.10 1008.87 1008.90 1009.19 1009.68 1010.28 1010.90 1011.43 1011.82 1012.05 1012.11 1012.08 1012.00 1011.94 1011.96 1012.07 1012.27 1012.53 1012.81 1013.07 1013.30 1013.48 1013.63 1013.77 1013.93 1014.13 1014.39 1014.67 1014.97 1015.24 1015.44 1015.57 1015.60 1015.56 1015.46 1015.33 1015.20 1015.08 1014.97 1014.87 1014.77 1014.65 1014.53
1010.87 1010.77 1010.45 1009.99 1009.49 1009.06 1008.79 1008.75 1008.94 1009.35 1009.90 1010.50 1011.08 1011.57 1011.91 1012.10 1012.17 1012.17 1012.15 1012.17 1012.26 1012.43 1012.65 1012.91 1013.16 1013.38 1013.55 1013.68 1013.79 1013.92 1014.10 1014.33 1014.63 1014.95 1015.28 1015.55 1015.75 1015.84 1015.82 1015.70 1015.52 1015.31 1015.10 1014.91 1014.75 1014.62 1014.50 1014.39 1014.28
1010.34 1010.17 1009.83 1009.40 1008.99 1008.69 1008.57 1008.66 1008.96 1009.42 1009.99 1010.57 1011.10 1011.52 1011.82 1012.00 1012.08 1012.12 1012.17 1012.26 1012.42 1012.63 1012.88 1013.14 1013.37 1013.55 1013.68 1013.79 1013.89 1014.02 1014.21 1014.47 1014.78 1015.13 1015.46 1015.73 1015.90 1015.96 1015.88 1015.71 1015.46 1015.19 1014.93 1014.70 1014.52 1014.38 1014.28 1014.20 1014.13
1010.00 1009.79 1009.44 1009.05 1008.72 1008.52 1008.50 1008.67 1009.01 1009.48 1010.01 1010.53 1011.00 1011.36 1011.62 1011.78 1011.89 1011.97 1012.07 1012.22 1012.42 1012.67 1012.93 1013.18 1013.40 1013.57 1013.69 1013.80 1013.90 1014.05 1014.25 1014.52 1014.84 1015.18 1015.49 1015.74 1015.88 1015.89 1015.78 1015.57 1015.29 1015.00 1014.72 1014.49 1014.32 1014.22 1014.17 1014.15 1014.15
1009.94 1009.71 1009.37 1009.03 1008.76 1008.62 1008.65 1008.84 1009.16 1009.58 1010.03 1010.47 1010.85 1011.14 1011.36 1011.52 1011.64 1011.76 1011.90 1012.08 1012.30 1012.55 1012.82 1013.06 1013.28 1013.45 1013.59 1013.72 1013.85 1014.01 1014.22 1014.49 1014.78 1015.09 1015.36 1015.56 1015.66 1015.65 1015.52 1015.31 1015.04 1014.76 1014.51 1014.32 1014.21 1014.17 1014.20 1014.26 1014.35
1010.12 1009.89 1009.58 1009.28 1009.07 1008.97 1009.01 1009.18 1009.44 1009.76 1010.10 1010.43 1010.72 1010.95 1011.14 1011.29 1011.43 1011.57 1011.73 1011.91 1012.13 1012.36 1012.60 1012.83 1013.05 1013.24 1013.42 1013.58 1013.75 1013.94 1014.16 1014.40 1014.65 1014.89 1015.10 1015.25 1015.31 1015.28 1015.16 1014.97 1014.75 1014.53 1014.34 1014.22 1014.18 1014.23 1014.34 1014.51 1014.69
1010.42 1010.20 1009.95 1009.71 1009.56 1009.49 1009.53 1009.64 1009.82 1010.02 1010.24 1010.44 1010.64 1010.82 1010.98 1011.14 1011.29 1011.44 1011.61 1011.78 1011.96 1012.15 1012.35 1012.56 1012.78 1013.00 1013.22 1013.44 1013.65 1013.87 1014.08 1014.28 1014.48 1014.64 1014.78 1014.86 1014.88 1014.85 1014.76 1014.62 1014.48 1014.34 1014.24 1014.20 1014.25 1014.37 1014.57 1014.82 1015.09
1010.66 1010.49 1010.32 1010.18 1010.10 1010.09 1010.12 1010.18 1010.25 1010.33 1010.41 1010.50 1010.61 1010.74 1010.89 1011.06 1011.23 1011.40 1011.56 1011.70 1011.84 1011.98 1012.13 1012.32 1012.53 1012.77 1013.04 1013.31 1013.57 1013.81 1014.02 1014.18 1014.31 1014.39 1014.44 1014.46 1014.46 1014.43 1014.38 1014.32 1014.26 1014.22 1014.21 1014.26 1014.37 1014.55 1014.81 1015.12 1015.45
1010.68 1010.60 1010.54 1010.54 1010.58 1010.64 1010.69 1010.70 1010.68 1010.63 1010.58 1010.55 1010.58 1010.67 1010.83 1011.02 1011.22 1011.41 1011.57 1011.69 1011.78 1011.87 1011.97 1012.12 1012.33 1012.59 1012.90 1013.22 1013.53 1013.79 1013.99 1014.11 1014.17 1014.17 1014.14 1014.11 1014.08 1014.07 1014.07 1014.10 1014.13 1014.18 1014.25 1014.36 1014.51 1014.72 1015.00 1015.33 1015.70
1010.37 1010.42 1010.55 1010.73 1010.94 1011.11 1011.19 1011.17 1011.06 1010.88 1010.69 1010.55 1010.50 1010.55 1010.71 1010.94 1011.19 1011.41 1011.59 1011.70 1011.75 1011.79 1011.85 1011.96 1012.16 1012.45 1012.79 1013.16 1013.51 1013.79 1013.98 1014.06 1014.06 1013.99 1013.90 1013.82 1013.78 1013.80 1013.86 1013.96 1014.08 1014.21 1014.34 1014.48 1014.64 1014.84 1015.09 1015.41 1015.79
1009.75 1009.98 1010.34 1010.76 1011.17 1011.48 1011.62 1011.58 1011.37 1011.06 1010.72 1010.45 1010.30 1010.31 1010.47 1010.73 1011.03 1011.31 1011.52 1011.64 1011.69 1011.70 1011.73 1011.82 1012.01 1012.30 1012.68 1013.08 1013.46 1013.77 1013.96 1014.02 1013.97 1013.85 1013.71 1013.61 1013.57 1013.61 1013.72 1013.89 1014.09 1014.28 1014.45 1014.60 1014.73 1014.89 1015.09 1015.36 1015.71
1008.93 1009.39 1010.03 1010.73 1011.37 1011.83 1012.03 1011.96 1011.64 1011.16 1010.65 1010.22 1009.95 1009.89 1010.03 1010.32 1010.68 1011.02 1011.29 1011.46 1011.52 1011.53 1011.54 1011.62 1011.81 1012.11 1012.51 1012.94 1013.36 1013.68 1013.88 1013.93 1013.86 1013.72 1013.56 1013.44 1013.41 1013.48 1013.64 1013.88 1014.13 1014.37 1014.56 1014.70 1014.80 1014.89 1015.02 1015.22 1015.53
1008.13 1008.86 1009.79 1010.77 1011.63 1012.23 1012.48 1012.35 1011.89 1011.22 1010.49 1009.86 1009.43 1009.27 1009.37 1009.67 1010.08 1010.50 1010.85 1011.07 1011.18 1011.22 1011.24 1011.32 1011.50 1011.82 1012.23 1012.69 1013.14 1013.49 1013.71 1013.78 1013.71 1013.57 1013.40 1013.29 1013.27 1013.38 1013.59 1013.87 1014.18 1014.45 1014.65 1014.78 1014.84 1014.88 1014.94 1015.07 1015.31
1007.55 1008.55 1009.76 1011.00 1012.05 1012.75 1013.00 1012.77 1012.13 1011.24 1010.27 1009.40 1008.79 1008.49 1008.52 1008.82 1009.27 1009.76 1010.18 1010.49 1010.66 1010.74 1010.79 1010.88 1011.07 1011.40 1011.83 1012.31 1012.79 1013.18 1013.44 1013.54 1013.50 1013.38 1013.24 1013.14 1013.15 1013.29 1013.54 1013.86 1014.21 1014.52 1014.74 1014.87 1014.91 1014.90 1014.90 1014.97 1015.15
1007.33 1008.57 1010.02 1011.45 1012.63 1013.38 1013.57 1013.20 1012.37 1011.22 1009.99 1008.88 1008.06 1007.61 1007.56 1007.82 1008.30 1008.85 1009.35 1009.73 1009.98 1010.11 1010.20 1010.31 1010.52 1010.85 1011.30 1011.81 1012.32 1012.76 1013.07 1013.22 1013.23 1013.15 1013.05 1012.99 1013.03 1013.19 1013.47 1013.84 1014.22 1014.56 1014.82 1014.97 1015.02 1015.00 1014.96 1014.99 1015.11
1007.48 1008.91 1010.52 1012.07 1013.30 1014.02 1014.11 1013.58 1012.52 1011.13 1009.65 1008.32 1007.31 1006.72 1006.57 1006.80 1007.28 1007.87 1008.44 1008.89 1009.20 1009.39 1009.51 1009.65 1009.87 1010.21 1010.67 1011.21 1011.76 1012.25 1012.62 1012.84 1012.92 1012.91 1012.85 1012.84 1012.91 1013.10 1013.41 1013.80 1014.22 1014.60 1014.90 1015.09 1015.17 1015.17 1015.14 1015.14 1015.23
1007.91 1009.45 1011.14 1012.71 1013.91 1014.54 1014.49 1013.79 1012.53 1010.94 1009.27 1007.75 1006.59 1005.89 1005.66 1005.85 1006.33 1006.95 1007.55 1008.05 1008.41 1008.64 1008.79 1008.94 1009.17 1009.52 1009.99 1010.55 1011.13 1011.68 1012.12 1012.42 1012.58 1012.64 1012.66 1012.69 1012.80 1013.02 1013.34 1013.76 1014.20 1014.63 1014.98 1015.23 1015.37 1015.42 1015.41 1015.42 1015.49
1008.47 1010.03 1011.68 1013.18 1014.26 1014.76 1014.57 1013.71 1012.32 1010.60 1008.81 1007.20 1005.97 1005.20 1004.94 1005.10 1005.57 1006.18 1006.80 1007.32 1007.69 1007.93 1008.10 1008.25 1008.47 1008.82 1009.29 1009.86 1010.48 1011.07 1011.58 1011.97 1012.22 1012.37 1012.46 1012.55 1012.70 1012.94 1013.29 1013.72 1014.19 1014.65 1015.06 1015.38 1015.59 1015.70 1015.75 1015.79 1015.85
1008.96 1010.45 1011.98 1013.32 1014.23 1014.57 1014.24 1013.29 1011.84 1010.10 1008.31 1006.72 1005.49 1004.74 1004.47 1004.62 1005.07 1005.66 1006.26 1006.76 1007.12 1007.34 1007.48 1007.62 1007.82 1008.14 1008.60 1009.17 1009.81 1010.45 1011.02 1011.49 1011.83 1012.07 1012.24 1012.40 1012.59 1012.87 1013.23 1013.67 1014.17 1014.67 1015.12 1015.51 1015.79 1015.99 1016.11 1016.18 1016.26
1009.24 1010.58 1011.92 1013.04 1013.75 1013.93 1013.51 1012.53 1011.12 1009.47 1007.81 1006.34 1005.22 1004.54 1004.32 1004.47 1004.89 1005.44 1005.98 1006.42 1006.72 1006.89 1006.98 1007.07 1007.23 1007.51 1007.94 1008.49 1009.13 1009.79 1010.41 1010.95 1011.38 1011.71 1011.97 1012.20 1012.45 1012.76 1013.15 1013.61 1014.13 1014.65 1015.16 1015.60 1015.96 1016.23 1016.42 1016.55 1016.66
1009.30 1010.43 1011.52 1012.39 1012.90 1012.94 1012.48 1011.55 1010.28 1008.82 1007.38 1006.13 1005.19 1004.65 1004.49 1004.65 1005.03 1005.50 1005.95 1006.29 1006.50 1006.58 1006.60 1006.62 1006.72 1006.94 1007.31 1007.83 1008.44 1009.10 1009.74 1010.33 1010.83 1011.25 1011.60 1011.91 1012.24 1012.60 1013.03 1013.52 1014.05 1014.61 1015.14 1015.64 1016.06 1016.40 1016.66 1016.85 1017.00
Thickness
5825 5823 5820 5809 5788 5772 5771 5788 5800 5802 5804 5813 5816 5810 5798 5790 5782 5772 5795 5804 5803 5802 5801 5801 5801 5801 5801 5801 5799 5798 5798 5797 5796 5796 5796 5795 5794 5793 5792 5790 5788 5787 5786 5784 5782 5781 5779 5778 5777
5828 5825 5815 5799 5776 5759 5770 5794 5799 5805 5812 5817 5816 5811 5801 5794 5800 5797 5799 5803 5804 5803 5802 5801 5801 5802 5802 5802 5801 5799 5797 5796 5796 5795 5795 5794 5793 5792 5791 5789 5788 5786 5785 5783 5782 5780 5779 5777 5776
5830 5826 5807 5790 5775 5768 5778 5799 5806 5815 5822 5820 5811 5810 5802 5796 5802 5802 5805 5806 5805 5803 5802 5802 5802 5802 5803 5803 5801 5799 5797 5796 5795 5795 5794 5794 5792 5791 5790 5789 5787 5786 5785 5783 5781 5780 5778 5777 5775
5828 5814 5802 5785 5778 5793 5801 5808 5815 5814 5817 5820 5812 5801 5804 5812 5811 5810 5810 5808 5805 5803 5803 5802 5802 5802 5802 5802 5801 5799 5797 5796 5795 5794 5794 5793 5792 5791 5789 5788 5787 5786 5784 5783 5781 5780 5778 5776 5775
5825 5805 5788 5779 5789 5806 5816 5821 5822 5813 5812 5813 5810 5795 5795 5812 5817 5815 5811 5809 5805 5803 5803 5802 5802 5802 5802 5801 5800 5798 5796 5796 5795 5794 5793 5792 5791 5790 5789 5788 5787 5785 5784 5782 5781 5779 5778 5776 5774
5813 5801 5779 5775 5793 5811 5819 5825 5823 5814 5812 5813 5808 5796 5794 5811 5813 5812 5812 5809 5807 5805 5803 5802 5802 5802 5801 5800 5799 5798 5797 5796 5795 5794 5793 5792 5791 5790 5789 5788 5787 5785 5784 5782 5781 5779 5777 5775 5774
5807 5794 5783 5788 5795 5805 5819 5829 5821 5815 5811 5814 5814 5796 5796 5806 5813 5814 5812 5810 5807 5806 5804 5802 5802 5801 5801 5800 5799 5798 5796 5795 5794 5793 5792 5791 5790 5789 5788 5787 5786 5785 5784 5782 5780 5778 5777 5775 5774
5822 5800 5791 5794 5797 5803 5824 5830 5829 5822 5817 5826 5821 5800 5795 5807 5816 5815 5811 5808 5806 5804 5804 5802 5801 5801 5800 5799 5799 5797 5796 5795 5794 5793 5792 5791 5790 5789 5788 5787 5786 5785 5783 5782 5780 5778 5776 5775 5773
5831 5796 5787 5798 5803 5809 5827 5824 5828 5833 5825 5824 5824 5817 5816 5820 5817 5810 5805 5803 5802 5802 5803 5802 5802 5800 5800 5799 5798 5797 5796 5795 5793 5792 5791 5790 5788 5788 5787 5786 5785 5784 5783 5782 5780 5777 5775 5774 5773
5819 5792 5802 5822 5826 5824 5829 5827 5827 5822 5815 5813 5816 5820 5823 5820 5814 5807 5802 5799 5799 5800 5802 5803 5802 5801 5800 5799 5798 5797 5795 5794 5792 5791 5790 5788 5787 5786 5785 5785 5784 5783 5782 5781 5779 5776 5775 5773 5772
5824 5811 5824 5834 5840 5838 5831 5829 5833 5819 5807 5812 5813 5816 5819 5816 5812 5808 5806 5804 5803 5804 5804 5805 5804 5803 5801 5799 5798 5796 5794 5793 5792 5790 5789 5787 5786 5785 5783 5782 5782 5781 5780 5779 5777 5775 5774 5772 5771
5831 5834 5838 5840 5847 5842 5835 5833 5829 5825 5821 5830 5829 5826 5821 5816 5812 5810 5807 5807 5807 5806 5806 5807 5806 5804 5802 5800 5798 5796 5794 5793 5791 5790 5788 5786 5784 5783 5782 5781 5780 5779 5778 5777 5775 5774 5772 5772 5771
5834 5837 5844 5847 5847 5846 5842 5834 5830 5828 5835 5836 5833 5828 5822 5818 5816 5815 5814 5812 5810 5807 5807 5808 5807 5805 5803 5801 5799 5797 5795 5794 5792 5790 5788 5786 5784 5782 5781 5780 5779 5778 5777 5776 5774 5772 5772 5771 5771
5840 5842 5844 5846 5846 5846 5837 5833 5830 5828 5838 5835 5830 5825 5824 5821 5819 5816 5814 5812 5810 5810 5809 5809 5808 5806 5805 5802 5800 5798 5796 5794 5792 5790 5788 5787 5785 5783 5781 5779 5778 5777 5776 5775 5773 5772 5771 5770 5769
5847 5834 5836 5842 5844 5843 5838 5820 5827 5837 5838 5832 5830 5828 5825 5824 5822 5819 5818 5816 5814 5812 5811 5810 5809 5807 5805 5803 5801 5799 5796 5795 5792 5790 5788 5786 5784 5782 5780 5778 5777 5776 5775 5774 5772 5771 5769 5768 5768
5836 5821 5812 5834 5844 5844 5827 5803 5830 5842 5836 5829 5829 5829 5825 5824 5824 5824 5823 5820 5818 5816 5813 5811 5811 5807 5805 5803 5801 5799 5796 5794 5792 5790 5788 5786 5784 5782 5780 5778 5776 5776 5775 5773 5770 5768 5766 5765 5765
5812 5801 5807 5825 5844 5841 5827 5810 5830 5841 5836 5829 5829 5828 5825 5823 5823 5824 5826 5824 5821 5818 5815 5811 5810 5807 5805 5803 5801 5799 5796 5794 5792 5790 5788 5786 5784 5782 5780 5778 5776 5775 5773 5771 5770 5767 5765 5763 5763
5797 5801 5808 5814 5834 5835 5824 5819 5830 5838 5836 5830 5829 5827 5825 5824 5824 5828 5827 5826 5823 5820 5816 5813 5810 5808 5806 5803 5800 5797 5795 5793 5791 5789 5788 5786 5784 5782 5780 5777 5775 5774 5772 5770 5768 5765 5764 5763 5762
5817 5812 5809 5821 5840 5830 5822 5820 5827 5834 5832 5829 5827 5826 5825 5826 5829 5830 5828 5826 5822 5818 5815 5812 5809 5807 5805 5801 5797 5793 5790 5790 5789 5789 5787 5785 5784 5781 5779 5777 5774 5773 5771 5769 5767 5765 5763 5761 5762
5820 5810 5811 5823 5839 5831 5820 5819 5829 5835 5834 5834 5830 5828 5827 5826 5826 5826 5825 5824 5821 5817 5815 5812 5809 5807 5806 5803 5800 5797 5793 5790 5789 5788 5787 5785 5783 5782 5780 5776 5775 5773 5770 5768 5766 5764 5761 5759 5760
5816 5813 5814 5815 5828 5831 5818 5808 5818 5828 5835 5836 5835 5834 5833 5830 5826 5825 5823 5822 5820 5818 5816 5814 5810 5808 5806 5804 5800 5796 5792 5789 5786 5784 5783 5784 5782 5781 5779 5777 5775 5773 5771 5767 5765 5764 5761 5756 5757
5809 5830 5831 5825 5809 5796 5806 5778 5804 5817 5823 5829 5830 5830 5830 5832 5830 5827 5824 5821 5820 5819 5817 5814 5811 5808 5806 5804 5800 5794 5788 5784 5784 5784 5783 5782 5781 5780 5779 5777 5775 5772 5770 5767 5765 5764 5761 5757 5753
5825 5840 5833 5825 5806 5794 5798 5782 5791 5812 5811 5820 5827 5831 5832 5833 5831 5828 5826 5824 5822 5820 5817 5813 5810 5807 5806 5803 5800 5794 5789 5787 5785 5784 5781 5780 5779 5779 5777 5776 5773 5771 5769 5767 5764 5763 5760 5757 5753
5841 5831 5822 5807 5791 5771 5787 5781 5782 5803 5814 5821 5827 5832 5834 5834 5832 5829 5827 5825 5821 5819 5816 5812 5808 5804 5804 5802 5799 5794 5789 5786 5783 5780 5778 5777 5776 5776 5776 5774 5772 5769 5767 5765 5763 5761 5758 5756 5753
5829 5797 5771 5766 5756 5761 5787 5783 5788 5819 5831 5831 5831 5833 5836 5835 5830 5827 5824 5821 5819 5816 5814 5810 5805 5802 5801 5799 5797 5794 5790 5786 5782 5779 5776 5774 5772 5772 5772 5772 5769 5767 5765 5763 5761 5758 5756 5754 5751
5817 5798 5765 5752 5748 5759 5781 5779 5800 5830 5839 5840 5840 5838 5836 5832 5829 5826 5825 5822 5819 5817 5813 5809 5804 5800 5799 5797 5794 5792 5789 5785 5782 5779 5776 5773 5771 5770 5769 5768 5766 5765 5763 5761 5758 5755 5752 5750 5748
5812 5799 5797 5771 5763 5756 5767 5785 5806 5827 5828 5831 5831 5830 5829 5829 5828 5826 5824 5821 5819 5816 5812 5808 5803 5800 5798 5795 5793 5789 5787 5784 5781 5778 5776 5772 5770 5768 5766 5765 5763 5761 5759 5757 5754 5750 5748 5746 5744
5825 5812 5785 5766 5748 5743 5759 5770 5778 5800 5810 5820 5821 5820 5822 5825 5824 5822 5821 5820 5819 5816 5813 5808 5804 5800 5797 5794 5791 5788 5784 5782 5779 5776 5772 5770 5767 5765 5763 5761 5759 5757 5755 5752 5750 5746 5744 5741 5739
5811 5804 5786 5765 5760 5745 5740 5760 5805 5807 5813 5814 5818 5819 5819 5819 5820 5818 5817 5817 5817 5814 5810 5805 5801 5797 5794 5791 5788 5785 5782 5779 5776 5772 5769 5767 5764 5762 5759 5757 5755 5752 5750 5747 5745 5742 5739 5736 5734
5814 5803 5786 5765 5758 5754 5745 5763 5816 5816 5817 5817 5817 5817 5817 5818 5818 5816 5815 5814 5811 5808 5805 5802 5799 5795 5792 5789 5785 5781 5778 5775 5771 5768 5766 5764 5761 5759 5756 5753 5751 5748 5745 5743 5740 5737 5735 5731 5729